www.pogodaiklimat.ru

Погода и климат >> Архив погоды >> Россия >> Краснодарский край >> Горный


ПОГОДА в Горном

  • Прогноз погоды в Горном
  • Монитор погоды в Горном
  • Климат города

АРХИВ ПОГОДЫ в Горном

Время (UTC), дата Ветер
(напр.,м/с)
 
Видим.   Явления Облачность Т
(С)
Тd
(С)
f
(%)
Тe
(С)
Тes
(С)
Комфортность P
(гПа)
Po
(гПа)
Тmin
(С)
Tmax
(С)
R
(мм)
S
(см)
03 17.02 СВ 2 50 км ясно -10.6 -11.2 95 -15 -15 1030.9 988.7 -10.6 0.3 24
06 17.02 СВ 3 50 км ясно -10.3 -12.8 82 -16 -15 1031.3 989.1 -11.9
09 17.02 СВ 3 50 км ясно -1.8 -11.5 47 -6 -0 1029.7 988.8
12 17.02 С 2 50 км 3/3 600 м
[Sc]
-0.7 -11.7 43 -4 -1 1028.6 988.0
15 17.02 С 1 50 км 9/9 600 м
[Sc]
-1.7 -9.3 56 -3 -3 1028.7 987.9 +0.6
18 17.02 ЮЗ 6-12
{14}
20 км 8/8 600 м
[Sc]
0.0 -4.8 70 -6 -6 1028.6 988.1
21 17.02 ЮЗ 7-13
{15}
20 км 8/8 600 м
[Sc]
-0.2 -5.6 67 -7 -7 1028.4 987.9
00 18.02 ЮЗ 7-12
{16}
20 км 4/4 600 м
[Sc]
-0.6 -6.4 65 -7 -7 1028.0 987.4
03 18.02 ЮЗ 6-12
{15}
50 км 3/3 600 м
[Sc]
-0.4 -7.1 61 -7 -7 1027.4 986.8 -2.9 22
06 18.02 ЮЗ 4
{12}
50 км 10/0
[Cc]
+0.2 -7.9 54 -5 -3 1027.2 986.8
09 18.02 ЮЗ 4
{11}
50 км 10/10 600 м
[Sc]
+2.5 -9.0 42 -2 -2 1026.3 986.2
12 18.02 Ю 4
{10}
50 км 10/4 600 м
[Sc As op]
+3.4 -8.6 41 -0 0 1024.9 985.0
15 18.02 Ю 3 50 км 9/5 600 м
[Sc Ac lent]
+2.2 -6.1 54 -1 -1 1025.4 985.3 +3.5
18 18.02 Ю 2 50 км 3/0
[Ac lent]
+0.6 -6.9 57 -2 -2 1026.1 985.8
21 18.02 ЮЗ 3 50 км ясно +1.5 -12.2 35 -2 -2 1026.8 986.5
00 19.02 ЮЗ 4 50 км 3/0
[Ac lent]
+2.2 -15.8 25 -2 -2 1027.0 986.7
03 19.02 ЮЗ 4 50 км 8/4 600 м
[Sc Ac cast]
+3.0 -15.9 23 -1 -1 1027.8 987.7 +0.4 19
06 19.02 Ю 1 50 км 8/0
[Ac cast Ci fib]
+4.8 -11.3 30 +5 +6 1028.9 989.0
09 19.02 ЮЗ 6-12
{12}
50 км 8/0
[Ac lent Ci fib]
+8.2 -12.8 21 +5 +7 1028.3 988.9
12 19.02 ЮЗ 6-10
{12}
50 км 9/0
[Ac lent Ci]
+9.1 -12.4 20 +6 +7 1027.6 988.4
15 19.02 ЮЗ 2
{12}
50 км 9/0
[Ac lent Ci fib]
+6.8 -11.6 26 +6 +6 1028.0 988.5 +9.5
18 19.02 З 1 50 км 10/0
[Ac lent Ci sp]
+5.2 -8.0 38 +5 +5 1028.2 988.5
21 19.02 ЮЗ 3 50 км 8/0
[Ac lent Ci sp]
+4.9 -8.3 38 +2 +2 1027.4 987.6
00 20.02 ЮЗ 3 50 км 4/0
[Ac lent]
+3.9 -8.7 39 +1 +1 1026.6 986.7
03 20.02 С 1 50 км 3/0
[Ci fib]
-2.4 -4.6 85 -5 -5 1026.9 986.1 -2.4 13
06 20.02 штиль 0 50 км 4/0
[Ci]
+1.3 -4.2 67 +1 +3 1026.0 985.8 -3.6
09 20.02 Ю 2 50 км 4/0
[Ci fib]
+11.8 -9.5 22 +11 +18 1022.9 984.2
12 20.02 ЮЗ 3 50 км 10/0
[Cs]
+12.0 -9.1 22 +11 +14 1020.4 981.9
15 20.02 ЮЗ 2 50 км 10/0
[As op Cs]
+9.5 -9.8 25 +9 +9 1019.3 980.5 +13.3
18 20.02 штиль 0 50 км 8/0
[As op]
+2.9 -6.5 50 +3 +3 1019.6 979.9
21 20.02 штиль 0 50 км 6/0
[As op]
+0.3 -4.3 71 -1 -1 1018.8 978.7
00 21.02 ЮЗ 3 50 км 8/8 600 м
[Sc]
+2.5 -5.8 54 -1 -1 1017.3 977.6
03 21.02 Ю 4 50 км 8/6
[Sc]
+5.3 -3.8 52 +2 +2 1016.2 977.0 -1.4 8
06 21.02 Ю 6-10
{13}
4000 м ливневой дождь 10/10 600 м
[Cb cap]
+2.9 +2.7 99 -3 -3 1018.0 978.4
09 21.02 ЮЗ 6-12
{12}
10 км слабый ливневой дождь 10/10 600 м
[Cb cap]
+3.8 +2.4 91 -2 -2 1016.9 977.4
12 21.02 ЮЗ 3
{12}
20 км {ливн. осадки} 10/10 600 м
[Sc diur, vesp]
+4.4 +1.3 80 +1 +1 1015.2 975.9
15 21.02 Ю 5
{11}
20 км слабый ливневой дождь 10/10 600 м
[Cb cap]
+3.2 +1.2 87 -2 -2 1015.0 975.5 +5.5 7
18 21.02 Ю 5-11
{12}
10 км слабый ливневой дождь 10/10 600 м
[Cb cap]
+2.5 +2.5 100 -3 -3 1014.7 975.2
21 21.02 Ю 6-12
{12}
10 км слабый ливневой дождь 10/10 600 м
[Cb cap]
+2.7 +2.7 100 -3 -3 1014.5 975.0
00 22.02 Ю 3
{13}
10 км {ливн. осадки} 10/10 600 м
[Cb cap]
+3.2 +1.4 88 -1 -1 1013.7 974.3
03 22.02 Ю 4-10
{14}
10 км 10/10 600 м
[Sc]
+4.4 -0.7 69 0 0 1012.3 973.0 +2.3 7 4
09 22.02 ЮЗ 5-12
{15}
20 км 10/10 600 м
[Sc diur, vesp]
+7.7 -1.8 51 +4 +4 1009.1 970.4
12 22.02 Ю 10-18
{18}
10 км слабый ливневой дождь 10/10 600 м
[Cb cap]
+4.7 +3.7 93 -2 -2 1008.8 969.8
15 22.02 Ю 6-14
{18}
4000 м ливневой дождь 10/10 600 м
[Cb cap]
+3.7 +3.7 100 -2 -2 1009.0 969.8 +8.0 11
18 22.02 ЮЗ 4
{15}
10 км слабый ливневой дождь 10/10 600 м
[Cb cap]
+2.9 +2.9 100 -2 -2 1012.0 972.6
21 22.02 ЮЗ 3 20 км {ливн. осадки} 8/8 600 м
[Sc diur, vesp]
+2.2 +2.2 100 -2 -2 1015.3 975.7
00 23.02 Ю 4 10 км {ливн. осадки} 10/10 600 м
[Sc diur, vesp]
+2.6 +1.9 95 -2 -2 1016.0 976.4
03 23.02 Ю 5-10
{11}
10 км слабый ливневой дождь 10/10 600 м
[Cb cap]
+2.4 +2.2 99 -3 -3 1016.6 976.8 +2.0 12 1
06 23.02 Ю 8-14
{15}
20 км {ливн. осадки} 10/10 600 м
[Sc diur, vesp]
+3.7 0.0 77 -2 -2 1015.8 976.4
09 23.02 ЮЗ 9-19
{19}
50 км 9/9 600 м
[Sc diur, vesp]
+5.8 -0.6 63 0 0 1013.8 974.7
12 23.02 ЮЗ 8-15
{19}
20 км слабый ливневой дождь 10/10 600 м
[Cb cap]
+5.5 -0.2 67 0 0 1012.9 973.8
15 23.02 Ю 7-14
{18}
20 км слабый ливневой дождь 10/10 600 м
[Cb cap]
+6.5 -0.4 61 +2 +2 1011.9 973.0 +6.8 0.7
18 23.02 Ю 9-18
{21}
20 км слабый ливневой дождь 10/10 600 м
[Cb cap]
+6.7 +0.7 66 +2 +2 1011.4 972.5
21 23.02 Ю 8-16
{24}
20 км слабый ливневой дождь 10/10 600 м
[Cb cap]
+6.8 +1.4 68 +2 +2 1013.5 974.6
00 24.02 Ю 5-13
{17}
20 км слабый ливневой дождь 10/10 600 м
[Cb cap]
+5.7 +1.9 77 +1 +1 1014.7 975.6

 

Местоположение метеостанции Горный (Краснодарский край, Россия): широта 44.28 долгота 39.27 высота над уровнем моря 323 м.

В архиве по умолчанию представлена погода в Горном за последнюю неделю. Архивные данные за месяц целиком и за предыдущие месяцы, начиная с января 2011 года, Вы можете получить, выбрав интересующий диапазон дат из раскрывающегося списка и нажав кнопку "Ввод!".

Внимание! Время в таблицах - всемирное. Для получения местного времени необходимо прибавить поправку, которая в Горном равна 3 ч.

Смотрите также архив погоды в соседних городах и на ближайших метеорологических станциях:

Погода в Туапсе (Краснодарский край, Россия) (26 км)
Погода в Горячем Ключе (Краснодарский край, Россия) (41 км)
Погода в Джубге (Краснодарский край, Россия) (44 км)
Погода в Шунтуке (Адыгея, Россия) (71 км)
Погода в Белореченске (Краснодарский край, Россия) (72 км)
Погода в Майкопе (Адыгея, Россия) (75 км)
Погода в Гузерипле (Адыгея, Россия) (75 км)
Погода в Сочи (Краснодарский край, Россия) (88 км)
Погода в Краснодаре (Краснодарский край, Россия) (88 км)
Погода в Кепше (Краснодарский край, Россия) (96 км)

Пояснения к столбцам:

Ветер - указаны скорость ветра в м/с - средняя за 10 мин, порывы в срок и между сроками (в фигурных скобках) и направление, откуда дует ветер: С - северный, СВ - северо-восточный, В - восточный, ЮВ - юго-восточный, Ю - южный, ЮЗ - юго-западный, З - западный, СЗ - северо-западный.
Видимость - горизонтальная дальность видимости в метрах или километрах. При видимости от 1 до 10 км при отсутствии осадков обычно наблюдается дымка, при ухудшении видимости до 1 км и менее - туман. В сухую погоду видимость может ухудшаться дымом, пылью или мглою.
Явления - указаны атмосферные явления, наблюдавшиеся в срок или в последний час перед сроком; фигурными скобками обозначены явления, наблюдавшиеся между сроками (за 1-3 часа до срока); квадратными скобками обозначены град или гололедные отложения с указанием их диаметра в мм.
Облачность - указаны через наклонную черту общая и нижняя облачность в баллах и высота нижней границы облаков в метрах; квадратными скобками обозначены формы облаков: Ci - перистые, Cs - перисто-слоистые, Cc - перисто-кучевые, Ac - высококучевые, As - высокослоистые, Sc - слоисто-кучевые, Ns - слоисто-дождевые, Cu - кучевые, Cb - кучево-дождевые. Подробнее классификацию облаков см. в Атласе облаков (PDF).
T - Температура воздуха - температура, измеренная на высоте 2 м над землей.
Td - Температура точки росы - температура, при понижении до которой содержащийся в воздухе водяной пар достигнет насыщения.
f - Относительная влажность воздуха - влажноcть воздуха, измеренная на высоте 2 м над землей.
Te - Эффективная температура - температура, которую ощущает одетый по сезону человек в тени. Характеристика душности погоды. При расчете учитывается влияние влажности воздуха и скорости ветра на теплоощущения человека.
Tes - Эффективная температура на солнце - температура, которую ощущает человек, с поправкой на солнечный нагрев. Характеристика знойности погоды. Зависит от высоты солнца над горизонтом, облачности и скорости ветра. Ночью, в пасмурную погоду, а также при ветре 12 м/с и более поправка равна нулю.
P - Атмосферное давление - приведенное к уровню моря атмосферное давление.
Po - Атмосферное давление - измеренное на уровне метеостанции атмосферное давление.
Tmin - Минимальная температура - минимум температуры воздуха на высоте 2 м над землей.
Tmax - Максимальная температура - максимум температуры воздуха на высоте 2 м над землей.
R - Количество осадков - Количество выпавших осадков, мм. При наведении курсора мыши на число - период времени, за который выпало указанное количество осадков.
S - Снежный покров - Высота снежного покрова, см. При наведении курсора мыши на число - состояние снежного покрова и степень покрытия местности в баллах.